Time,TemperatureF,DewpointF,PressureIn,WindDirection,WindDirectionDegrees,WindSpeedMPH,WindSpeedGustMPH,Humidity,HourlyPrecipIn,Conditions,Clouds,dailyrainin,SoftwareType,DateUTC
2013-09-21 00:23:00,38.0,-99.9,-100.00,North,-999,-999.0,-999.0,-999,0.00,,,0.02,,2013-09-21 06:23:00,
2013-09-21 00:32:00,38.0,-99.9,-100.00,North,-999,-999.0,-999.0,-999,0.00,,,0.02,,2013-09-21 06:32:00,
2013-09-21 00:42:00,38.0,-99.9,-100.00,North,-999,-999.0,-999.0,-999,0.00,,,0.02,,2013-09-21 06:42:00,
2013-09-21 01:22:00,38.0,-99.9,-100.00,North,-999,-999.0,-999.0,-999,0.00,,,0.02,,2013-09-21 07:22:00,
2013-09-21 01:32:00,38.0,-99.9,-100.00,North,-999,-999.0,-999.0,-999,0.00,,,0.02,,2013-09-21 07:32:00,
2013-09-21 01:42:00,38.0,-99.9,-100.00,North,-999,-999.0,-999.0,-999,0.00,,,0.02,,2013-09-21 07:42:00,
2013-09-21 02:22:00,38.0,-99.9,-100.00,North,-999,-999.0,-999.0,-999,0.00,,,0.01,,2013-09-21 08:22:00,
2013-09-21 02:32:00,38.0,-99.9,-100.00,North,-999,-999.0,-999.0,-999,0.00,,,0.01,,2013-09-21 08:32:00,
2013-09-21 02:42:00,38.0,-99.9,-100.00,North,-999,-999.0,-999.0,-999,0.00,,,0.01,,2013-09-21 08:42:00,
2013-09-21 03:22:00,37.0,-99.9,-100.00,North,-999,-999.0,-999.0,-999,0.00,,,0.02,,2013-09-21 09:22:00,
2013-09-21 03:33:00,37.0,-99.9,-100.00,North,-999,-999.0,-999.0,-999,0.00,,,0.02,,2013-09-21 09:33:00,
2013-09-21 04:23:00,37.0,-99.9,-100.00,North,-999,-999.0,-999.0,-999,0.00,,,0.02,,2013-09-21 10:23:00,
2013-09-21 04:33:00,37.0,-99.9,-100.00,North,-999,-999.0,-999.0,-999,0.00,,,0.02,,2013-09-21 10:33:00,
2013-09-21 04:42:00,37.0,-99.9,-100.00,North,-999,-999.0,-999.0,-999,0.00,,,0.02,,2013-09-21 10:42:00,
2013-09-21 05:23:00,37.0,-99.9,-100.00,North,-999,-999.0,-999.0,-999,-99.99,,,0.03,,2013-09-21 11:23:00,
2013-09-21 05:33:00,37.0,-99.9,-100.00,North,-999,-999.0,-999.0,-999,-99.99,,,0.03,,2013-09-21 11:33:00,
2013-09-21 05:42:00,37.0,-99.9,-100.00,North,-999,-999.0,-999.0,-999,-99.99,,,0.03,,2013-09-21 11:42:00,
2013-09-21 06:22:00,36.0,-99.9,-100.00,North,-999,-999.0,-999.0,-999,-99.99,,,0.01,,2013-09-21 12:22:00,
2013-09-21 06:32:00,36.0,-99.9,-100.00,North,-999,-999.0,-999.0,-999,-99.99,,,0.01,,2013-09-21 12:32:00,
2013-09-21 06:42:00,36.0,-99.9,-100.00,North,-999,-999.0,-999.0,-999,-99.99,,,0.01,,2013-09-21 12:42:00,
2013-09-21 07:22:00,35.0,-99.9,-100.00,North,-999,-999.0,-999.0,-999,0.00,,,0.01,,2013-09-21 13:22:00,
2013-09-21 07:32:00,35.0,-99.9,-100.00,North,-999,-999.0,-999.0,-999,0.00,,,0.01,,2013-09-21 13:32:00,
2013-09-21 07:42:00,35.0,-99.9,-100.00,North,-999,-999.0,-999.0,-999,0.00,,,0.01,,2013-09-21 13:42:00,
2013-09-21 08:22:00,35.0,-99.9,-100.00,North,-999,-999.0,-999.0,-999,0.00,,,-99.99,,2013-09-21 14:22:00,
2013-09-21 08:32:00,35.0,-99.9,-100.00,North,-999,-999.0,-999.0,-999,0.00,,,-99.99,,2013-09-21 14:32:00,
2013-09-21 08:42:00,35.0,-99.9,-100.00,North,-999,-999.0,-999.0,-999,0.00,,,-99.99,,2013-09-21 14:42:00,
2013-09-21 08:45:00,36.0,-99.9,-100.00,North,-999,-999.0,-999.0,-999,0.01,,,0.02,,2013-09-21 14:45:00,
2013-09-21 09:22:00,36.0,-99.9,-100.00,North,-999,-999.0,-999.0,-999,0.01,,,0.02,,2013-09-21 15:22:00,
2013-09-21 09:34:00,36.0,-99.9,-100.00,North,-999,-999.0,-999.0,-999,0.01,,,0.02,,2013-09-21 15:34:00,
2013-09-21 10:24:00,44.0,-99.9,-100.00,North,-999,-999.0,-999.0,-999,-99.99,,,0.01,,2013-09-21 16:24:00,
2013-09-21 10:34:00,44.0,-99.9,-100.00,North,-999,-999.0,-999.0,-999,-99.99,,,0.01,,2013-09-21 16:34:00,
2013-09-21 10:43:00,44.0,-99.9,-100.00,North,-999,-999.0,-999.0,-999,-99.99,,,0.01,,2013-09-21 16:43:00,
2013-09-21 11:23:00,54.0,-99.9,-100.00,North,-999,-999.0,-999.0,-999,0.01,,,0.02,,2013-09-21 17:23:00,
2013-09-21 11:34:00,54.0,-99.9,-100.00,North,-999,-999.0,-999.0,-999,0.01,,,0.02,,2013-09-21 17:34:00,
2013-09-21 11:43:00,54.0,-99.9,-100.00,North,-999,-999.0,-999.0,-999,0.01,,,0.02,,2013-09-21 17:43:00,
2013-09-21 12:22:00,59.0,-99.9,-100.00,North,-999,-999.0,-999.0,-999,-99.99,,,0.01,,2013-09-21 18:22:00,
2013-09-21 12:33:00,59.0,-99.9,-100.00,North,-999,-999.0,-999.0,-999,-99.99,,,0.01,,2013-09-21 18:33:00,
2013-09-21 12:42:00,59.0,-99.9,-100.00,North,-999,-999.0,-999.0,-999,-99.99,,,0.01,,2013-09-21 18:42:00,
2013-09-21 13:22:00,68.0,-99.9,-100.00,North,-999,-999.0,-999.0,-999,0.00,,,-99.99,,2013-09-21 19:22:00,
2013-09-21 13:32:00,68.0,-99.9,-100.00,North,-999,-999.0,-999.0,-999,0.00,,,-99.99,,2013-09-21 19:32:00,
2013-09-21 13:42:00,68.0,-99.9,-100.00,North,-999,-999.0,-999.0,-999,0.00,,,-99.99,,2013-09-21 19:42:00,
2013-09-21 14:22:00,67.0,-99.9,-100.00,North,-999,-999.0,-999.0,-999,0.00,,,0.00,,2013-09-21 20:22:00,
2013-09-21 14:32:00,67.0,-99.9,-100.00,North,-999,-999.0,-999.0,-999,0.00,,,0.00,,2013-09-21 20:32:00,
2013-09-21 14:43:00,67.0,-99.9,-100.00,North,-999,-999.0,-999.0,-999,0.00,,,0.00,,2013-09-21 20:43:00,
2013-09-21 14:45:00,71.0,-99.9,-100.00,North,-999,-999.0,-999.0,-999,0.01,,,0.01,,2013-09-21 20:45:00,
2013-09-21 15:22:00,71.0,-99.9,-100.00,North,-999,-999.0,-999.0,-999,0.01,,,0.01,,2013-09-21 21:22:00,
2013-09-21 15:34:00,71.0,-99.9,-100.00,North,-999,-999.0,-999.0,-999,0.01,,,0.01,,2013-09-21 21:34:00,
2013-09-21 16:24:00,73.0,-99.9,-100.00,North,-999,-999.0,-999.0,-999,-99.99,,,0.00,,2013-09-21 22:24:00,
2013-09-21 16:33:00,73.0,-99.9,-100.00,North,-999,-999.0,-999.0,-999,-99.99,,,0.00,,2013-09-21 22:33:00,
2013-09-21 16:43:00,73.0,-99.9,-100.00,North,-999,-999.0,-999.0,-999,-99.99,,,0.00,,2013-09-21 22:43:00,
2013-09-21 17:42:00,77.0,-99.9,-100.00,North,-999,-999.0,-999.0,-999,0.01,,,-99.99,,2013-09-21 23:42:00,
2013-09-21 18:23:00,68.0,-99.9,-100.00,North,-999,-999.0,-999.0,-999,-99.99,,,0.01,,2013-09-22 00:23:00,
2013-09-21 18:32:00,68.0,-99.9,-100.00,North,-999,-999.0,-999.0,-999,-99.99,,,0.01,,2013-09-22 00:32:00,
2013-09-21 18:43:00,68.0,-99.9,-100.00,North,-999,-999.0,-999.0,-999,-99.99,,,0.01,,2013-09-22 00:43:00,
2013-09-21 19:22:00,59.0,-99.9,-100.00,North,-999,-999.0,-999.0,-999,0.00,,,0.02,,2013-09-22 01:22:00,
2013-09-21 19:32:00,59.0,-99.9,-100.00,North,-999,-999.0,-999.0,-999,0.00,,,0.02,,2013-09-22 01:32:00,
2013-09-21 19:42:00,59.0,-99.9,-100.00,North,-999,-999.0,-999.0,-999,0.00,,,0.02,,2013-09-22 01:42:00,
2013-09-21 20:22:00,51.0,-99.9,-100.00,North,-999,-999.0,-999.0,-999,-99.99,,,0.01,,2013-09-22 02:22:00,
2013-09-21 20:32:00,51.0,-99.9,-100.00,North,-999,-999.0,-999.0,-999,-99.99,,,0.01,,2013-09-22 02:32:00,
2013-09-21 20:42:00,51.0,-99.9,-100.00,North,-999,-999.0,-999.0,-999,-99.99,,,0.01,,2013-09-22 02:42:00,
2013-09-21 20:45:00,48.0,-99.9,-100.00,North,-999,-999.0,-999.0,-999,0.00,,,0.02,,2013-09-22 02:45:00,
2013-09-21 21:22:00,48.0,-99.9,-100.00,North,-999,-999.0,-999.0,-999,0.00,,,0.02,,2013-09-22 03:22:00,
2013-09-21 21:34:00,48.0,-99.9,-100.00,North,-999,-999.0,-999.0,-999,0.00,,,0.02,,2013-09-22 03:34:00,
2013-09-21 22:24:00,45.0,-99.9,-100.00,North,-999,-999.0,-999.0,-999,0.00,,,0.00,,2013-09-22 04:24:00,
2013-09-21 22:34:00,45.0,-99.9,-100.00,North,-999,-999.0,-999.0,-999,0.00,,,0.00,,2013-09-22 04:34:00,
2013-09-21 22:44:00,45.0,-99.9,-100.00,North,-999,-999.0,-999.0,-999,0.00,,,0.00,,2013-09-22 04:44:00,
2013-09-21 23:23:00,44.0,-99.9,-100.00,North,-999,-999.0,-999.0,-999,0.00,,,0.00,,2013-09-22 05:23:00,
2013-09-21 23:35:00,44.0,-99.9,-100.00,North,-999,-999.0,-999.0,-999,0.00,,,0.00,,2013-09-22 05:35:00,
2013-09-21 23:43:00,44.0,-99.9,-100.00,North,-999,-999.0,-999.0,-999,0.00,,,0.00,,2013-09-22 05:43:00,